Location: Anumalkud?ru
(16.4847°N, 80.6636°E)
Time: 14:20:19
(UTC+00:00)

ARIANE 5 R/B - Pass Details

Date: 11 April 2026
Orbit: 246 x 30894 km, 5.9° (Epoch: 10 May)

Event Time Altitude Azimuth Distance (km) Brightness Sun altitude
Exits shadow 21:52:49 22° 142° (SE) 2,101 4.8 -35.8°
Drops below altitude 10° 21:59:52 10° 111° (ESE) 5,153 7.2 -34.2°
Sets 22:11:40 0° 102° (ESE) 9,883 8.9 -31.6°
